Weather in Nybro

Sweden     56°44′35″N   15°54′17″E
temp.,
°C
wind,
m/s
gust,
m/s
humid.,
%
clouds,
%
prec.,
mm/h
press.,
hPa
HPBL,
m
23 april, fri
fri2323:00+2wnw412690 0.0 1014414
02:00+2nw412660 0.0 1015510
05:00+1nw513560 0.0 1015825
08:00+4nw512470 0.0 10161239
11:00+7nw6113171 0.0 10172527
14:00+9nnw61025100 0.0 10183256
17:00+9nnw6922100 0.0 10183054
20:00+6nw38315 0.0 1019296
24 april, sat
sat2423:00+2wnw38492 0.0 1020161
02:00+2nw3115250 0.0 1020308
05:000nw310680 0.0 1020343
08:00+3nnw58510 0.0 1021772
11:00+6nw5828100 0.0 10202515
14:00+7nnw6824100 0.0 10202962
17:00+8nnw5725100 0.0 10202911
20:00+5nw493546 0.0 1021644
25 april, sun
sun2523:00+2wnw3104956 0.0 1021305
02:000nw385931 0.0 1022223
05:00−1nw411645 0.0 1021326
08:00+3nnw58535 0.0 1021877
11:00+6nnw5731100 0.0 10202590
14:00+8nnw5724100 0.0 10203077
17:00+7nne3632100 0.0 10202285
20:00+3nne125788 0.2 1020100
26 april, mon
mon2623:000wnw226535 0.1 102046
02:00−1wnw39655 0.1 1019186
05:00−1nw3107390 0.0 1018211
08:00+3nw495399 0.0 1018661
11:00+7nnw573698 0.0 10171845
14:00+9nnw4537100 0.0 10161984
17:00+9n3533100 0.0 10152032
20:00+5ene115238 0.0 101533
27 april, tue
tue2723:000n00745 0.0 101610
02:00−1n11795 0.0 101611
05:000nnw117886 0.0 101525
08:00+4n246867 0.0 1015512
11:00+8ene2249100 0.0 10151483
14:00+8e2253100 0.0 10141402
17:00+7e335684 0.1 10141067
20:00+4e257281 0.1 1014224